TIME,DELAY(SENSOR),PRES,T(CTD),SAL,OXYGEN,RAWTEMP,T(OPTODE),TCPHASE,FLUOR,BETA(BETA700),BETA(BETA412),BETA(BETA440),CDOM,C(CSC),ED(ED412.40),ED(ED444.00),ED(ED489.70),ED(ED554.30),LU(LU411.80),LU(LU443.40),LU(LU489.60),LU(LU554.10),COMP,TILTX,TILTX(TILTY),CHECK
1348262183,5809,497.4700012207031000,5.6814999580383300,34.1879005432128900,51.2475509643554700,628.4802246093750000,5.6602921485900880,52.9779396057128900,52,104,91,79,81,15232,2147753005,2147422573,2148004498,2147871296,2147636141,2147072018,2148248749,2147197979,1237,4,13,24139
1348262337,5805,485.1900024414062500,5.7476000785827640,34.1781005859375000,53.8943786621093750,626.4650268554688000,5.7259368896484375,52.5853881835937500,53,102,91,80,80,15236,2147754651,2147423323,2148008146,2147871689,2147634742,2147070436,2148247689,2147199917,1116,4,13,65375
1348262458,5810,473.4299926757812500,5.9010000228881840,34.1711997985839840,58.3751792907714840,621.8858032226562000,5.8749499320983890,51.9149093627929700,52,102,91,80,81,15233,2147753846,2147421988,2148005677,2147870939,2147637211,2147072594,2148249234,2147197531,2009,4,13,33980
1348262579,5807,462.0299987792969000,6.1437997817993160,34.1721000671386700,63.3090400695800800,614.3161010742188000,6.1208171844482420,51.1682395935058600,52,103,91,79,81,15233,2147750326,2147419721,2148008054,2147873545,2147634230,2147073115,2148253238,2147199177,2809,4,13,43652
1348262702,5807,451.4599914550781000,6.2627000808715820,34.1610984802246100,66.9295806884765600,609.6754760742188000,6.2712631225585940,50.6391716003418000,53,106,88,78,80,15232,2147751350,2147423643,2148007451,2147873389,2147635392,2147077696,2148252873,2147199798,2315,4,13,16232
1348262834,5808,441.0199890136719000,6.3880000114440920,34.1492004394531250,74.5480117797851600,606.5119018554688000,6.3737068176269530,49.6526603698730500,52,107,91,80,80,15230,2147746669,2147423323,2148007158,2147873380,2147632877,2147076745,2148249984,2147200027,1644,4,13,44363
1348262980,5806,430.0799865722656000,6.7038998603820800,34.1282005310058600,83.4620208740234400,596.2390136718750000,6.7056918144226070,48.4514503479003900,51,107,86,82,80,15228,2147748580,2147419108,2148005065,2147872310,2147633344,2147081353,2148241115,2147202057,376,4,13,53031
1348263134,5808,418.2799987792969000,6.9478001594543460,34.1199989318847660,92.4867172241211000,589.4846191406250000,6.9234309196472170,47.3382911682128900,52,106,89,81,79,15227,2147748278,2147423140,2148006089,2147870948,2147633984,2147080539,2148244352,2147199286,310,4,12,18169
1348263277,5809,406.8599853515625000,7.2083001136779785,34.1142005920410160,99.1814880371093800,581.3729248046875000,7.1843638420104980,46.4899101257324200,51,104,88,81,78,15229,2147748086,2147427419,2148007890,2147871926,2147627794,2147082971,2148240704,2147199268,2875,4,13,29474
1348263390,5808,395.4700012207031000,7.3808999061584470,34.1150016784668000,104.7599029541015600,575.7664794921875000,7.3643569946289060,45.8181686401367200,50,105,91,81,78,15226,2147744667,2147425508,2148004635,2147870866,2147628617,2147082221,2148243812,2147199396,3432,4,13,48016
1348263489,5807,384.9700012207031000,7.5443000793457030,34.1100997924804700,109.9596023559570300,570.5703735351562000,7.5309300422668460,45.2055397033691400,50,105,89,81,77,15230,2147746322,2147421193,2148005714,2147872713,2147627282,2147086537,2148238592,2147197942,877,4,13,25662
1348263601,5812,373.5700073242187500,7.7220001220703125,34.1046981811523440,116.2315979003906200,565.1298217773438000,7.7050862312316895,44.4979209899902340,51,106,88,80,78,15227,2147744402,2147422784,2148008384,2147870308,2147625490,2147084342,2148236571,2147197266,1047,4,13,59678
1348263711,5812,362.9800109863281000,7.8235998153686520,34.1063995361328100,122.7276992797851600,561.7391967773438000,7.8134918212890625,43.8214988708496100,51,105,89,80,78,15227,2147745042,2147424713,2148008027,2147872082,2147624713,2147089307,2148236004,2147203154,626,4,13,58560
1348263821,5807,352.5899963378906000,8.2824001312255860,34.0904998779296900,136.6855010986328000,547.3148803710938000,8.2735824584960940,42.3146591186523440,50,105,88,79,76,15230,2147745426,2147423588,2148008228,2147870372,2147624649,2147091053,2148237769,2147201536,848,4,13,32680
1348263944,5807,341.4899902343750000,8.6233997344970700,34.0910987854003900,155.3014984130859400,536.9348754882812000,8.6036148071289060,40.5895004272460940,50,104,89,80,75,15234,2147743597,2147422454,2148007661,2147872118,2147621467,2147092507,2148240868,2147202386,1012,4,13,44559
1348264076,5809,329.8500061035156000,8.8801002502441400,34.0955009460449200,162.5625000000000000,527.9973754882812000,8.8870983123779300,39.8726310729980500,50,104,84,80,74,15232,2147741970,2147423533,2148009161,2147870409,2147621577,2147099492,2148232045,2147201755,582,4,13,13651
1348264200,5805,319.6300048828125000,9.2152996063232420,34.0984001159668000,176.0009002685547000,517.9362792968750000,9.2054920196533200,38.7159996032714840,50,105,92,81,74,15230,2147741385,2147420635,2148011081,2147870372,2147620233,2147094034,2148238829,2147201554,1808,4,13,55802
1348264354,5804,308.9800109863281000,9.5902004241943360,34.1072998046875000,189.8274993896484400,506.0307922363281000,9.5812826156616210,37.5731697082519500,49,109,90,79,72,15229,2147739510,2147424219,2148008320,2147871387,2147616064,2147103570,2148232886,2147202633,1121,4,13,18613
1348264555,5808,294.7300109863281000,10.0972003936767580,34.1127014160156250,199.0207977294922000,488.7091979980469000,10.1262397766113280,36.6939888000488300,49,106,88,80,72,15230,2147737206,2147426761,2148021083,2147873188,2147616640,2147105554,2148233261,2147201782,3212,4,13,45265
1348264665,5811,284.0199890136719000,10.2792997360229500,34.1066017150878900,201.1320037841797000,484.3002014160156000,10.2646303176879880,36.4896888732910160,49,108,90,80,71,15227,2147733531,2147429622,2148024173,2147872073,2147615926,2147106541,2148234240,2147207012,2764,4,13,38395
1348264775,5808,272.7300109863281000,10.7432003021240230,34.1329002380371100,202.2384033203125000,469.0401916503906000,10.7426300048828120,36.1684188842773440,49,104,85,80,70,15227,2147731922,2147423744,2148009691,2147870198,2147611748,2147106806,2148228745,2147203885,3460,4,13,18066
1348264876,5809,262.4200134277344000,11.2201995849609380,34.1707000732421900,200.5552062988281200,454.1802978515625000,11.2067203521728520,36.0271911621093750,49,105,88,81,71,15224,2147737088,2147427172,2148014034,2147874614,2147608557,2147111963,2148227858,2147205997,3210,4,13,43840
1348264997,5809,251.0200042724609400,11.9727001190185550,34.2106018066406250,202.4824981689453000,430.6256103515625000,11.9397802352905270,35.5286903381347660,49,106,90,81,70,15223,2147732315,2147426377,2148019931,2147869613,2147605558,2147117266,2148225106,2147206665,2046,4,13,24700
1348265129,5807,240.6699981689453000,12.4682998657226560,34.2420997619628900,205.1683044433593800,413.5000000000000000,12.4709300994873050,35.0954513549804700,49,105,88,81,70,15223,2147729563,2147430966,2148019913,2147872667,2147605494,2147126573,2148220818,2147206025,852,4,14,10972
1348265318,5807,230.3500061035156200,13.2066001892089840,34.2752990722656250,201.3332061767578000,390.3236999511719000,13.1875600814819340,34.9615898132324200,49,105,92,81,69,15220,2147730130,2147464265,2148156269,2147874377,2147600228,2147144813,2148280027,2147210066,105,4,14,26782
1348265527,5809,218.0099945068359400,14.5247001647949220,34.3382987976074200,213.6271972656250000,347.9601135253906000,14.4919595718383790,33.6007804870605500,49,108,87,80,68,15219,2147730541,2147491538,2148224740,2147870976,2147593316,2147167625,2148311286,2147216320,2074,4,14,63888
1348265638,5810,207.1399993896484400,15.3248996734619140,34.4443016052246100,217.2899017333984400,318.6286010742187500,15.3917798995971680,32.9657897949218750,49,105,88,80,67,15217,2147731693,2147525915,2148328603,2147872256,2147592777,2147190656,2148358637,2147220278,3246,4,14,21224
1348265737,5810,197.0800018310547000,16.1581993103027340,34.5442008972168000,214.7026977539062500,292.5129089355469000,16.1912593841552730,32.7290802001953100,50,107,92,79,68,15212,2147739328,2147579465,2148461211,2147873014,2147592146,2147223844,2148415085,2147222976,3415,4,14,2822
1348265792,5809,192.3600006103515600,16.5746994018554700,34.5946006774902340,216.1428985595703000,281.1188964843750000,16.5396900177001950,32.4869499206543000,50,106,88,80,67,15208,2147742171,2147609179,2148538980,2147871387,2147591808,2147243812,2148452745,2147230866,3536,4,14,53787
1348265866,5805,187.4100036621093800,16.7315006256103500,34.6184997558593750,216.6759033203125000,276.6123962402344000,16.6774501800537100,32.3938903808593750,52,107,88,80,67,15211,2147749083,2147643940,2148621897,2147873426,2147591488,2147272219,2148487369,2147230592,894,4,14,6706
1348265943,5810,183.6900024414062500,16.8593006134033200,34.6374015808105500,216.2256011962890600,270.6163940429687500,16.8607006072998050,32.3333091735839840,53,106,87,80,67,15208,2147755337,2147671533,2148688978,2147872768,2147589028,2147289590,2148518985,2147234230,1587,3,15,53805
1348266042,5807,180.1799926757812500,17.5932998657226560,34.7253990173339840,210.5453033447265600,248.4450988769531200,17.5380401611328120,32.3316192626953100,60,110,91,82,66,15189,2147760210,2147699867,2148745353,2147873828,2147594614,2147305252,2148542345,2147236507,1828,3,14,15072
1348266188,5803,176.0599975585937500,17.8535003662109380,34.7682991027832000,208.3453063964843800,238.3414001464843800,17.8466091156005860,32.3122596740722660,66,112,90,82,66,15186,2147778404,2147766016,2148881453,2147876726,2147597568,2147339830,2148600283,2147238866,3223,3,15,21735
1348266298,5805,171.3500061035156200,18.0912990570068360,34.7965011596679700,208.4855957031250000,230.8368072509765600,18.0757808685302730,32.1994094848632800,68,118,88,80,66,15182,2147798372,2147845622,2149051309,2147871890,2147603172,2147384914,2148667776,2147246747,3330,3,15,53238
1348266375,5807,167.6999969482422000,18.3994998931884770,34.8314018249511700,208.5818023681640600,220.8883056640625000,18.3795890808105470,32.0555992126464840,74,116,91,81,66,15176,2147822674,2147907337,2149184502,2147874651,2147610395,2147412662,2148720475,2147246162,3249,3,15,11250
1348266466,5810,163.6000061035156200,18.4932994842529300,34.8447990417480500,209.2543945312500000,217.3556060791015600,18.4874801635742200,31.9693603515625000,78,118,90,82,65,15172,2147850852,2148000320,2149359113,2147875922,2147620013,2147452800,2148789376,2147254784,2344,3,15,38697
1348266565,5808,159.9600067138672000,18.6427993774414060,34.8624992370605500,209.1201019287109400,212.4019927978515600,18.6387596130371100,31.9082603454589840,82,114,89,81,65,15174,2147890157,2148100150,2149553746,2147875776,2147634852,2147499593,2148864521,2147258852,1635,3,15,3693
1348266784,5807,156.3999938964843800,19.1993999481201170,34.9244003295898440,209.1197967529297000,195.1891937255859400,19.1645507812500000,31.6717491149902340,92,121,90,82,65,15155,2147966747,2148258450,2149816557,2147881325,2147656896,2147563776,2148950171,2147264420,2333,3,15,9705
1348266938,5808,151.8999938964843800,19.5002002716064450,34.9799995422363300,211.5523986816406200,184.7761993408203000,19.4827594757080080,31.3966007232666000,98,122,90,83,65,15155,2148077056,2148478793,2150192146,2147887140,2147694546,2147659328,2149084114,2147277696,773,3,15,3385
1348267048,5808,147.6199951171875000,19.6606998443603500,35.0164985656738300,214.5191040039062500,177.8802947998047000,19.6935501098632800,31.1434001922607420,95,123,93,82,64,15151,2148209609,2148750445,2150672539,2147889600,2147747044,2147794075,2149285988,2147293238,604,2,15,10777
1348267137,5809,143.3399963378906200,20.1261005401611330,35.1134986877441400,221.3509979248047000,163.1063995361328000,20.1453800201416000,30.5893192291259770,92,116,87,84,63,15148,2148346496,2148997184,2151112320,2147894390,2147808667,2147938861,2149492672,2147305435,3259,3,15,37345
1348267203,5806,139.5000000000000000,20.5244998931884770,35.1799011230468750,227.1369018554687500,149.2966003417968800,20.5680503845214840,30.1160697937011720,97,120,92,81,62,15139,2148505417,2149297490,2151639524,2147899117,2147887424,2148119350,2149735963,2147328649,2950,2,15,49773
1348267280,5810,135.0800018310547000,20.7849998474121100,35.2192993164062500,231.0695953369140600,142.2310943603515600,20.7844505310058600,29.8319702148437500,112,125,91,83,62,15130,2148715940,2149701302,2152337088,2147914797,2147989760,2148332507,2150036754,2147349110,2266,3,16,61812
1348267346,5811,131.4199981689453000,20.9778995513916000,35.2322006225585940,233.0868072509765600,136.4674987792968800,20.9610595703125000,29.6602706909179700,123,130,91,84,61,15104,2148961664,2150170349,2153115885,2147926281,2148099062,2148556562,2150346989,2147375936,2200,2,16,1044
1348267426,5813,127.2799987792968800,21.1921997070312500,35.2443008422851560,233.9268951416015600,130.3269042968750000,21.1493091583251950,29.5407791137695300,142,135,92,83,61,15077,2149277769,2150747510,2154034925,2147938779,2148227355,2148787154,2150682011,2147400978,2527,3,16,22321
1348267503,5810,123.7099990844726600,21.2686996459960940,35.2510986328125000,235.6707000732422000,126.7072982788086000,21.2603206634521500,29.4117202758789060,150,131,93,85,61,15062,2149704960,2151515968,2155233636,2147959478,2148396790,2149082688,2151105408,2147438884,2988,2,15,57278
1348267591,5807,119.5800018310546900,21.6093997955322270,35.2662010192871100,238.0005035400390600,116.6108016967773400,21.5701599121093750,29.1733207702636720,165,139,93,83,60,15044,2150318070,2152653860,2156874861,2147985170,2148627968,2149483547,2151662162,2147487954,2608,2,16,18916
1348267690,5809,115.5500030517578100,21.6826992034912100,35.2686004638671900,241.1681060791015600,112.9100036621093800,21.6837997436523440,28.9809608459472660,169,135,92,85,61,15034,2151202139,2154207113,2158993060,2148029997,2148956324,2150046592,2152409280,2147558016,2845,3,15,40907
1348267780,5808,111.8899993896484400,21.7716999053955080,35.2664985656738300,243.4197998046875000,110.1184997558593800,21.7695503234863280,28.8433990478515620,160,132,94,85,62,15039,2152107081,2155760557,2161040411,2148072539,2149307849,2150634157,2153162825,2147627547,3123,2,15,5723
1348267890,5804,108.2200012207031200,21.8805007934570300,35.2639007568359400,245.0890045166015600,107.2427978515625000,21.8579006195068360,28.7322597503662100,128,128,93,85,60,15060,2153373741,2157920274,2163742400,2148133504,2149847177,2151557622,2154261924,2147730331,2203,2,15,14787
1348268079,5811,104.0899963378906200,21.9403991699218750,35.2500000000000000,245.5679016113281200,104.6041030883789000,21.9389991760253900,28.6775798797607420,111,122,90,83,61,15078,2155680969,2161350345,2167645174,2148231570,2150861906,2153260873,2156092653,2147901732,550,2,16,2936
1348268178,5807,99.8799972534179700,22.1854991912841800,35.2369003295898440,243.3851928710937500,97.9283065795898400,22.1442794799804700,28.6905708312988280,86,119,91,83,62,15086,2158213869,2164795373,2171342454,2148357257,2151999186,2155087853,2157923830,2148080109,986,3,15,28196
1348268233,5806,97.6999969482421900,22.2162990570068360,35.2444992065429700,245.0431976318359400,95.8761672973632800,22.2074108123779300,28.5907402038574220,85,121,93,85,60,15087,2159687661,2166739190,2173444854,2148443629,2152741421,2156200484,2158994267,2148183250,1291,2,16,49634
1348268288,5808,95.3799972534179700,22.2562007904052730,35.2486991882324200,246.2964019775390600,94.7657394409179700,22.2415790557861330,28.5212993621826170,85,123,93,85,60,15090,2161459657,2169026779,2175811474,2148541732,2153639341,2157525659,2160252443,2148306953,1556,3,16,44051
1348268343,5806,93.0000000000000000,22.2966003417968750,35.2514991760253900,247.8137054443359400,93.2725296020507800,22.2875308990478500,28.4356498718261720,82,127,91,83,60,15088,2163493467,2171514358,2178323931,2148661824,2154713188,2159031369,2161638125,2148444717,1857,2,16,22042
1348268421,5807,89.5000000000000000,22.4447002410888670,35.2411003112793000,248.8038024902343800,88.7869033813476600,22.4256191253662100,28.3361091613769530,76,123,94,83,58,15087,2167194066,2175985435,2182875529,2148883172,2156696914,2161739236,2164108763,2148691803,2186,2,15,16786
1348268476,5809,87.1200027465820300,22.5401000976562500,35.2332000732421900,249.6293029785156200,84.9196472167968800,22.5447196960449220,28.2517890930175780,73,124,91,87,61,15087,2170081270,2179231844,2186062537,2149068571,2158306093,2163864137,2165953444,2148870646,2418,3,15,58733
1348268531,5809,85.6399993896484400,22.7290000915527340,35.2197990417480500,250.1371002197265600,79.5021820068359400,22.7116699218750000,28.1622295379638670,75,123,93,84,58,15085,2168418706,2176260644,2181925485,2148998162,2157538121,2162317641,2163924571,2148686811,2517,2,16,43007
1348268608,5808,84.5699996948242200,22.9393005371093750,35.2196006774902340,250.3115997314453000,72.7722473144531200,22.9192295074462900,28.0709209442138670,73,123,91,86,58,15077,2171639917,2180121993,2185839652,2149128822,2159635081,2165242724,2166641380,2148940489,1267,2,16,41412
1348268730,5812,80.5999984741211000,22.9717998504638670,35.2223014831543000,250.8842010498047000,70.8132629394531200,22.9796791076660160,28.0219097137451170,74,123,95,85,57,15080,2182118180,2192562825,2198903277,2149907593,2165354688,2172704182,2173375378,2149640237,1452,2,16,57574
1348268785,5809,76.8399963378906200,23.2283992767334000,35.2102012634277340,250.3155059814453000,62.8336296081543000,23.2260704040527340,27.9475193023681640,74,125,93,85,58,15074,2188264146,2198956352,2204849197,2150442386,2169093019,2177058486,2176897718,2150037723,1421,2,16,44712
1348268840,5809,73.2500000000000000,23.3556995391845700,35.2057991027832000,251.0016021728515600,58.9263801574707000,23.3468208312988280,27.8695793151855470,71,123,92,85,59,15069,2194851364,2206009316,2212163181,2151221933,2172766016,2181238025,2180215771,2150474029,1102,2,16,14669
1348268895,5810,69.8499984741211000,23.5198001861572270,35.1920013427734400,251.1506042480468800,53.7873191833496100,23.5057392120361330,27.7998294830322270,70,122,92,84,62,15072,2203096329,2214698761,2220666550,2152133622,2178190857,2187634587,2185740909,2151124315,951,2,16,44460
1348268950,5807,66.8099975585937500,23.6110992431640620,35.1846008300781250,251.8050994873047000,51.5754814147949200,23.5741691589355470,27.7447109222412100,69,124,92,86,56,15063,2210531163,2222427547,2228393654,2153151451,2182885120,2192944128,2190041965,2151670710,698,3,15,29000
1348269005,5809,64.5000000000000000,23.7064990997314450,35.1780014038085940,251.5260009765625000,48.0241508483886700,23.6840896606445300,27.7125797271728500,68,124,94,85,58,15062,2215483401,2227474523,2232968987,2153886454,2186556818,2196907675,2193134116,2152097618,1006,2,16,62189
1348269062,5809,62.7500000000000000,23.9472007751464840,35.1887016296386700,250.8805999755859400,40.6573181152343750,23.9123096466064450,27.6495094299316400,68,126,93,84,59,15062,2219332406,2231751725,2236963867,2154474724,2189471506,2199965595,2195445732,2152420955,2027,2,16,57897
1348269128,5808,61.4900016784668000,23.9517002105712900,35.1819000244140600,250.9924926757812500,39.6296806335449200,23.9441604614257800,27.6320304870605470,66,122,91,85,60,15064,2223484480,2235797842,2240882166,2155180553,2192229705,2202966171,2197784320,2152770596,1412,2,16,2200
1348269249,5810,59.7400016784668000,23.9566001892089840,35.1819000244140600,250.9423065185547000,38.7699317932128900,23.9708194732666000,27.6237907409667970,65,123,93,86,58,15065,2227965339,2239458185,2244327734,2155849782,2194793965,2205670025,2200147062,2153100736,87,2,16,36408
1348269724,5809,57.2099990844726560,24.8726997375488280,35.2069015502929700,246.3011016845703000,9.8071308135986330,24.8709907531738280,27.4675407409667970,61,127,95,86,57,15053,2239537481,2250874550,2254843081,2157634560,2206572800,2216892278,2207726180,2154065197,3169,2,16,33245
1348269801,5810,55.2500000000000000,24.9937000274658200,35.2089996337890600,245.6334991455078000,6.1454510688781740,24.9851207733154300,27.4517307281494140,61,126,94,84,61,15053,2246761974,2258110802,2261630528,2158935616,2213952996,2224114304,2212874980,2154739931,3016,2,16,12080
1348269889,5806,53.2500000000000000,25.0538005828857420,35.2121009826660160,245.1497039794922000,3.9011569023132324,25.0551109313964840,27.4452400207519530,61,131,93,85,58,15062,2253210816,2263880786,2266624941,2160473536,2221360109,2230999478,2217571931,2155485046,2969,2,16,39305
1348269977,5813,51.4500007629394500,25.0937004089355470,35.2125015258789060,244.7277984619140600,2.4840650558471680,25.0993194580078120,27.4461193084716800,61,124,89,87,59,15052,2262523657,2272972214,2274944941,2162299346,2230376210,2239557385,2223476434,2156323638,2905,2,16,2336
1348270066,5809,48.6699981689453100,25.2303009033203120,35.2158012390136700,243.8347015380859400,-1.9453170299530030,25.2375698089599600,27.4307994842529300,58,125,93,86,58,15055,2278018468,2287501632,2289018934,2166176045,2245663396,2254110308,2233813723,2158077952,3419,2,16,2646
1348270121,5810,46.0999984741210940,25.3484001159667970,35.2187004089355500,243.0653076171875000,-5.4333148002624510,25.3465309143066400,27.4217491149902340,58,122,92,86,60,15064,2291373531,2300661101,2301445019,2169772050,2258681746,2266302445,2242395593,2159661714,3160,2,16,24969
1348270176,5810,43.4099998474121100,25.4358005523681640,35.2190017700195300,242.2758941650390600,-8.3835477828979500,25.4387397766113280,27.4203300476074220,59,127,93,86,54,15058,2305757312,2315358957,2316319716,2175290212,2273644032,2279663552,2251416448,2161407817,2829,2,16,24201
1348270231,5808,40.5999984741210940,25.5725994110107420,35.2223014831543000,241.3260955810547000,-12.4209203720092770,25.5650196075439450,27.4126892089843750,57,127,95,84,58,15058,2315891017,2323743433,2323004388,2179400822,2288275053,2292941888,2260653101,2163155849,2788,2,16,54063
1348270286,5808,38.1100006103515600,25.6601009368896500,35.2247009277343750,240.4384002685547000,-15.4890699386596680,25.6610603332519530,27.4143295288085940,56,126,94,83,57,15064,2333557110,2342541120,2342513645,2186841344,2304114422,2307169115,2270642112,2165570240,2744,2,16,49956
1348270343,5809,35.8300018310546900,25.7982997894287100,35.2318000793457000,239.3065948486328000,-19.8448905944824220,25.7974891662597660,27.4110698699951170,55,124,91,85,60,15067,2344966811,2355473554,2356080667,2193664429,2318851254,2320034980,2279074797,2167828516,2237,1,16,51253
1348270398,5808,34.0900001525878900,25.9524002075195300,35.2359008789062500,238.1280059814453000,-24.2091598510742200,25.9343204498291000,27.4101905822753900,55,126,97,84,53,15068,2353874176,2364280374,2364355894,2198380937,2332319917,2332256228,2287437933,2169808822,1948,2,16,2677
1348270475,5806,32.3800010681152340,25.9871006011962900,35.2394981384277340,237.4691925048828000,-25.9289703369140620,25.9882698059082030,27.4184894561767580,56,125,95,86,57,15068,2361298422,2371606281,2371574180,2203921188,2344740416,2342830436,2294607396,2171780525,2110,2,16,41301
1348270585,5808,30.5400009155273440,26.0228996276855470,35.2414016723632800,236.6269989013672000,-27.7602996826171880,26.0457496643066400,27.4337291717529300,56,124,95,85,57,15061,2381560576,2395029321,2399121618,2217674176,2356514066,2352017088,2300512740,2173845705,2655,2,17,41766
1348270685,5810,27.9099998474121100,26.0739994049072270,35.2388992309570300,235.8016052246093800,-28.9649600982666000,26.0835609436035160,27.4559898376464840,53,124,94,85,53,15063,2342213385,2345073572,2340510217,2203992329,2349966473,2339251245,2286425746,2171155108,2832,2,16,46420
1348270740,5808,25.4699993133544920,26.0888004302978500,35.2405014038085940,235.5751953125000000,-29.5504207611084000,26.1019496917724600,27.4590892791748050,54,124,92,87,55,15064,2394624265,2406088914,2408890331,2236328374,2409887076,2397254061,2330416073,2183002121,2598,1,16,58798
